This is the latest recevied weather packets stored in our database for station/object N2PUI. If no packets are shown the sender has not sent any weather packets the latest 10 day(s).
| Time | Temp. | Humidity | Pressure | Rain* | Wind** | Luminosity | Snow |
|---|---|---|---|---|---|---|---|
| 1777561941 | 8.33° C | 85% | 1009.1 hPa | 0 mm | - | 159 W/m² | - |
| 1777561638 | 7.78° C | 85% | 1009.4 hPa | 0 mm | - | 152 W/m² | - |
| 1777561333 | 8.33° C | 85% | 1009.6 hPa | 0 mm | - | 206 W/m² | - |
| 1777561028 | 7.78° C | 85% | 1009.4 hPa | 0 mm | - | 108 W/m² | - |
| 1777560724 | 7.78° C | 85% | 1009.2 hPa | 0 mm | - | 198 W/m² | - |
| 1777560421 | 7.78° C | 86% | 1009.4 hPa | 0 mm | - | 196 W/m² | - |
| 1777560119 | 7.78° C | 86% | 1009.2 hPa | 0 mm | - | 114 W/m² | - |
| 1777559815 | 7.78° C | 86% | 1009.3 hPa | 0 mm | - | 106 W/m² | - |
| 1777559512 | 7.78° C | 86% | 1009 hPa | 0 mm | - | 176 W/m² | - |
| 1777559208 | 8.33° C | 86% | 1009 hPa | 0 mm | - | 180 W/m² | - |
| 1777558903 | 8.33° C | 86% | 1009.1 hPa | 0 mm | - | 164 W/m² | - |
| 1777558599 | 7.78° C | 86% | 1009.1 hPa | 0 mm | - | 156 W/m² | - |
| 1777558294 | 7.78° C | 87% | 1009.4 hPa | 0 mm | - | 197 W/m² | - |
| 1777557992 | 7.78° C | 88% | 1009.1 hPa | 0 mm | - | 238 W/m² | - |
| 1777557688 | 7.78° C | 88% | 1009.2 hPa | 0 mm | - | 161 W/m² | - |
| 1777557385 | 7.78° C | 88% | 1009.1 hPa | 0 mm | - | 134 W/m² | - |
| 1777557081 | 7.78° C | 89% | 1009.3 hPa | 0 mm | - | 108 W/m² | - |
| 1777556776 | 7.78° C | 90% | 1009.3 hPa | 0 mm | - | 111 W/m² | - |
| 1777556474 | 7.78° C | 90% | 1009.2 hPa | 0 mm | - | 115 W/m² | - |
| 1777556173 | 7.78° C | 91% | 1008.7 hPa | 0 mm | - | 123 W/m² | - |
| 1777555869 | 7.78° C | 91% | 1008.9 hPa | 0 mm | - | 154 W/m² | - |
| 1777555565 | 7.78° C | 92% | 1009.1 hPa | 0 mm | - | 152 W/m² | - |
| 1777555262 | 7.22° C | 93% | 1009.1 hPa | 0 mm | - | 135 W/m² | - |
| 1777554958 | 7.22° C | 93% | 1008.9 hPa | 0 mm | - | 176 W/m² | - |
| 1777554655 | 7.22° C | 94% | 1009.3 hPa | 0 mm | - | 134 W/m² | - |
* Rain latest hour (hover to see other rain measurements)
** Current wind speed in m/s (hover to see current wind gust speed)